• în România
  • Lista ţărilor
  • Pe 7 zile
  • Temperatura apei
  • Hartă satelitară
  • Meteo pe hartă
  • Widget-uri
  • user-avatar
    Intrare

    Meteo pe oră la Malanje

    Astăzi, 20 August, Duminică

    Timp Temperatura Precipitaţii Vânt Presiune Umiditate
    00:00 +25°C° 0 mm 2 m/s 666 mmHg 52%
    01:00 +22°C° 0 mm 3 m/s 666 mmHg 61%
    02:00 +22°C° 0 mm 3 m/s 666 mmHg 66%
    03:00 +21°C° 0 mm 2 m/s 665 mmHg 71%
    04:00 +20°C° 0 mm 2 m/s 665 mmHg 75%
    05:00 +20°C° 0 mm 2 m/s 665 mmHg 76%
    06:00 +19°C° 0 mm 2 m/s 666 mmHg 77%
    07:00 +20°C° 0 mm 1 m/s 666 mmHg 78%
    08:00 +24°C° 0 mm 1 m/s 667 mmHg 62%
    09:00 +28°C° 0 mm 1 m/s 668 mmHg 45%
    10:00 +32°C° 0 mm 1 m/s 669 mmHg 28%
    11:00 +34°C° 0 mm 2 m/s 668 mmHg 23%
    12:00 +36°C° 0 mm 2 m/s 668 mmHg 18%
    13:00 +38°C° 0 mm 2 m/s 667 mmHg 12%
    14:00 +38°C° 0 mm 2 m/s 667 mmHg 12%
    15:00 +38°C° 0 mm 2 m/s 666 mmHg 11%
    16:00 +37°C° 0 mm 2 m/s 666 mmHg 11%
    17:00 +35°C° 0 mm 2 m/s 665 mmHg 13%
    18:00 +32°C° 0 mm 1 m/s 665 mmHg 16%
    19:00 +30°C° 0 mm 1 m/s 665 mmHg 18%
    20:00 +28°C° 0 mm 1 m/s 666 mmHg 26%
    21:00 +27°C° 0 mm 2 m/s 666 mmHg 34%
    22:00 +26°C° 0 mm 3 m/s 666 mmHg 43%
    23:00 +25°C° 0 mm 3 m/s 666 mmHg 49%

    Mâine, 21 August, Luni

    Timp Temperatura Precipitaţii Vânt Presiune Umiditate
    00:00 +24°C° 0 mm 3 m/s 666 mmHg 55%
    01:00 +21°C° 0 mm 3 m/s 666 mmHg 61%
    02:00 +21°C° 0 mm 3 m/s 666 mmHg 64%
    03:00 +20°C° 0 mm 3 m/s 665 mmHg 67%
    04:00 +19°C° 0 mm 2 m/s 665 mmHg 70%
    05:00 +19°C° 0 mm 2 m/s 665 mmHg 72%
    06:00 +19°C° 0 mm 2 m/s 665 mmHg 74%
    07:00 +18°C° 0 mm 2 m/s 666 mmHg 75%
    08:00 +23°C° 0 mm 2 m/s 666 mmHg 62%
    09:00 +27°C° 0 mm 2 m/s 667 mmHg 49%
    10:00 +30°C° 0 mm 1 m/s 668 mmHg 36%
    11:00 +32°C° 0 mm 1 m/s 668 mmHg 31%
    12:00 +35°C° 0 mm 1 m/s 668 mmHg 26%
    13:00 +37°C° 0 mm 1 m/s 667 mmHg 21%
    14:00 +36°C° 0 mm 1 m/s 666 mmHg 22%
    15:00 +34°C° 0 mm 1 m/s 665 mmHg 24%
    16:00 +33°C° 0 mm 1 m/s 665 mmHg 25%
    17:00 +32°C° 0 mm 1 m/s 665 mmHg 27%
    18:00 +31°C° 0 mm 1 m/s 665 mmHg 29%
    19:00 +29°C° 0 mm 2 m/s 665 mmHg 31%
    20:00 +28°C° 0 mm 2 m/s 665 mmHg 35%
    21:00 +27°C° 0 mm 3 m/s 665 mmHg 39%
    22:00 +26°C° 0 mm 4 m/s 665 mmHg 44%
    23:00 +24°C° 0 mm 3 m/s 665 mmHg 49%

    Poimâine, 22 August, Marţi

    Timp Temperatura Precipitaţii Vânt Presiune Umiditate
    00:00 +22°C° 0 mm 3 m/s 665 mmHg 55%
    01:00 +21°C° 0 mm 3 m/s 664 mmHg 60%
    02:00 +20°C° 0 mm 2 m/s 664 mmHg 64%
    03:00 +19°C° 0 mm 2 m/s 664 mmHg 67%
    04:00 +19°C° 0 mm 2 m/s 664 mmHg 70%
    05:00 +19°C° 0 mm 2 m/s 664 mmHg 71%
    06:00 +19°C° 0 mm 2 m/s 665 mmHg 71%
    07:00 +20°C° 0 mm 1 m/s 665 mmHg 72%
    08:00 +24°C° 0 mm 2 m/s 666 mmHg 58%
    09:00 +27°C° 0 mm 2 m/s 667 mmHg 45%
    10:00 +31°C° 0 mm 2 m/s 668 mmHg 31%
    11:00 +34°C° 0 mm 2 m/s 667 mmHg 26%
    12:00 +36°C° 0 mm 2 m/s 667 mmHg 21%
    13:00 +37°C° 0 mm 3 m/s 666 mmHg 16%
    14:00 +37°C° 0 mm 2 m/s 665 mmHg 15%
    15:00 +37°C° 0 mm 2 m/s 665 mmHg 14%
    16:00 +37°C° 0 mm 2 m/s 664 mmHg 14%
    17:00 +34°C° 0 mm 1 m/s 664 mmHg 15%
    18:00 +32°C° 0 mm 1 m/s 664 mmHg 17%
    19:00 +29°C° 0 mm 1 m/s 663 mmHg 19%
    20:00 +28°C° 0 mm 1 m/s 664 mmHg 22%
    21:00 +27°C° 0 mm 1 m/s 664 mmHg 26%
    22:00 +26°C° 0 mm 2 m/s 664 mmHg 29%
    23:00 +25°C° 0 mm 2 m/s 664 mmHg 39%

    23 August, Miercuri

    Timp Temperatura Precipitaţii Vânt Presiune Umiditate
    00:00 +24°C° 0 mm 2 m/s 664 mmHg 48%
    01:00 +23°C° 0 mm 2 m/s 663 mmHg 57%
    02:00 +21°C° 0 mm 2 m/s 663 mmHg 62%
    03:00 +20°C° 0 mm 2 m/s 663 mmHg 66%
    04:00 +20°C° 0 mm 1 m/s 663 mmHg 71%
    05:00 +19°C° 0 mm 2 m/s 663 mmHg 72%
    06:00 +19°C° 0 mm 2 m/s 664 mmHg 74%
    07:00 +18°C° 0 mm 2 m/s 664 mmHg 76%
    08:00 +23°C° 0 mm 2 m/s 665 mmHg 63%
    09:00 +26°C° 0 mm 2 m/s 666 mmHg 50%
    10:00 +29°C° 0 mm 2 m/s 667 mmHg 37%
    11:00 +32°C° 0 mm 1 m/s 666 mmHg 31%
    12:00 +34°C° 0 mm 1 m/s 666 mmHg 24%
    13:00 +37°C° 0 mm 1 m/s 666 mmHg 18%
    14:00 +36°C° 0 mm 1 m/s 665 mmHg 18%
    15:00 +36°C° 0 mm 1 m/s 664 mmHg 18%
    16:00 +36°C° 0 mm 2 m/s 664 mmHg 18%
    17:00 +34°C° 0 mm 2 m/s 664 mmHg 22%
    18:00 +31°C° 0 mm 3 m/s 664 mmHg 26%
    19:00 +29°C° 0 mm 3 m/s 664 mmHg 30%
    20:00 +28°C° 0 mm 3 m/s 664 mmHg 37%
    21:00 +26°C° 0 mm 4 m/s 664 mmHg 45%
    22:00 +23°C° 0 mm 4 m/s 664 mmHg 52%
    23:00 +22°C° 0 mm 4 m/s 664 mmHg 58%

    24 August, Joi

    Timp Temperatura Precipitaţii Vânt Presiune Umiditate
    00:00 +21°C° 0 mm 4 m/s 664 mmHg 65%
    01:00 +20°C° 0 mm 4 m/s 663 mmHg 71%
    02:00 +19°C° 0 mm 4 m/s 664 mmHg 74%
    03:00 +18°C° 0 mm 4 m/s 664 mmHg 77%
    04:00 +18°C° 0 mm 4 m/s 664 mmHg 80%
    05:00 +18°C° 0 mm 4 m/s 664 mmHg 78%
    06:00 +18°C° 0 mm 4 m/s 665 mmHg 77%
    07:00 +18°C° 0 mm 4 m/s 665 mmHg 76%
    08:00 +20°C° 0 mm 3 m/s 666 mmHg 65%
    09:00 +24°C° 0 mm 3 m/s 667 mmHg 54%
    10:00 +26°C° 0 mm 3 m/s 667 mmHg 44%
    11:00 +28°C° 0 mm 3 m/s 667 mmHg 38%
    12:00 +30°C° 0 mm 3 m/s 666 mmHg 33%
    13:00 +33°C° 0 mm 3 m/s 665 mmHg 28%
    14:00 +33°C° 0 mm 3 m/s 665 mmHg 27%
    15:00 +33°C° 0 mm 4 m/s 664 mmHg 26%
    16:00 +33°C° 0 mm 4 m/s 664 mmHg 26%
    17:00 +30°C° 0 mm 4 m/s 664 mmHg 30%
    18:00 +29°C° 0 mm 4 m/s 664 mmHg 33%
    19:00 +27°C° 0 mm 4 m/s 665 mmHg 37%
    20:00 +26°C° 0 mm 4 m/s 665 mmHg 41%
    21:00 +25°C° 0 mm 4 m/s 665 mmHg 45%
    22:00 +23°C° 0 mm 4 m/s 665 mmHg 50%
    23:00 +22°C° 0 mm 4 m/s 665 mmHg 56%

    25 August, Vineri

    Timp Temperatura Precipitaţii Vânt Presiune Umiditate
    00:00 +21°C° 0 mm 4 m/s 665 mmHg 61%
    01:00 +20°C° 0 mm 4 m/s 665 mmHg 67%
    02:00 +19°C° 0 mm 4 m/s 664 mmHg 70%
    03:00 +18°C° 0 mm 4 m/s 664 mmHg 73%
    04:00 +18°C° 0 mm 4 m/s 664 mmHg 76%
    05:00 +18°C° 0 mm 4 m/s 665 mmHg 76%
    06:00 +18°C° 0 mm 4 m/s 665 mmHg 76%
    07:00 +18°C° 0 mm 4 m/s 665 mmHg 75%
    08:00 +20°C° 0 mm 3 m/s 666 mmHg 62%
    09:00 +24°C° 0 mm 3 m/s 667 mmHg 49%
    10:00 +27°C° 0 mm 3 m/s 667 mmHg 36%
    11:00 +29°C° 0 mm 3 m/s 667 mmHg 32%
    12:00 +33°C° 0 mm 3 m/s 666 mmHg 27%
    13:00 +35°C° 0 mm 3 m/s 666 mmHg 22%
    14:00 +35°C° 0 mm 3 m/s 665 mmHg 22%
    15:00 +35°C° 0 mm 3 m/s 665 mmHg 21%
    16:00 +35°C° 0 mm 3 m/s 664 mmHg 21%
    17:00 +33°C° 0 mm 3 m/s 664 mmHg 25%
    18:00 +30°C° 0 mm 4 m/s 664 mmHg 28%
    19:00 +28°C° 0 mm 4 m/s 664 mmHg 32%
    20:00 +27°C° 0 mm 4 m/s 665 mmHg 36%
    21:00 +25°C° 0 mm 4 m/s 665 mmHg 40%
    22:00 +23°C° 0 mm 4 m/s 665 mmHg 44%
    23:00 +22°C° 0 mm 4 m/s 665 mmHg 50%
    Arată mai mult